Regional Weather Roundup
Issued by NWS

Home | Current Version | Previous Version | Text Only | Print | Product List | Glossary Off
Versions: 1 2 3 4 5 6 7 8 9 10 11 12 13 14 15 16 17 18 19 20 21 22 23 24 25 26 27 28 29 30 31 32 33 34 35 36 37 38 39 40 41 42 43 44 45 46 47 48 49 50

000
ASUS45 KSLC 041810
RWRUT

UTAH REGIONAL WEATHER ROUNDUP
NATIONAL WEATHER SERVICE SALT LAKE CITY UT
1200 PM MDT SAT JUL 04 2015

UTZ001>011-023>025-041900-

NORTHERN UTAH

CITY           SKY/WX    TMP DP  RH WIND       PRES   REMARKS
BRIGHAM CITY   MOSUNNY   92  37  14 S5        29.95S
HILL AFB       MOSUNNY   90  49  24 S6        30.00R
LOGAN          SUNNY     88  51  28 E5        29.96F
OGDEN          MOSUNNY   90  48  23 VRB5      29.96S
PROVO AIRPORT  PTSUNNY   88  52  29 SE6       30.00S
SALT LAKE CITY PTSUNNY   94  47  20 S15       29.93F HX  90
VERNAL         MOSUNNY   87  45  23 VRB3      30.05S
WENDOVER       MOSUNNY   93  45  18 E13       29.95S
HEBER CITY     PTSUNNY   82  45  26 CALM      30.07F
WEST JORDAN    SUNNY     90  48  24 S16       29.99S

$$

UTZ012>022-026-027-041900-

SOUTHERN/CENTRAL UTAH

CITY           SKY/WX    TMP DP  RH WIND       PRES   REMARKS
BLANDING       SUNNY     82  49  31 S6        30.22F
BRYCE CANYON   CLOUDY    71  51  49 SE10      30.28R
CEDAR CITY     CLOUDY    80  48  32 VRB5      30.12S
DELTA          PTSUNNY   91  44  19 NW8       29.99S
HANKSVILLE     SUNNY     91  48  22 W3        30.01F
MILFORD        CLOUDY    88  46  23 S18       30.03S
MOAB/CYNLANDS  SUNNY     90  49  24 S9G17     30.00F
PRICE          MOSUNNY   84  49  29 VRB3      30.12S
ST GEORGE      MOCLDY    90  52  27 W3        29.96S
KANAB          CLOUDY    84  54  34 CALM      30.15S

$$

REGIONAL REPORTS     COLORADO/ARIZONA

CITY           SKY/WX    TMP DP  RH WIND       PRES   REMARKS
CRAIG, CO      MOSUNNY   86  48  26 SW8       30.12F
GRAND JUNCTION SUNNY     87  50  27 S12G17    30.05F
RIFLE          SUNNY     82  51  34 VRB5      30.11F
MONTROSE       PTSUNNY   81  53  37 S7        30.15F
CORTEZ         SUNNY     83  52  34 SW6       30.16S
PAGE, AZ       CLOUDY    86  55  34 W6        30.04S
GRAND CANYON   CLOUDY    72  52  49 CALM      30.23S
KINGMAN        CLOUDY    90  47  22 SW13      30.00R
FLAGSTAFF      MOSUNNY   72  56  57 S6        30.25S

$$

REGIONAL REPORTS    NEVADA/IDAHO/WYOMING

CITY           SKY/WX    TMP DP  RH WIND       PRES   REMARKS
LAS VEGAS, NV  CLOUDY    96  43  16 W7        29.84R HX  92
ELY            CLOUDY    81  43  26 S15       30.15R
ELKO           SUNNY     86  49  27 SW5       30.02F
POCATELLO, ID  SUNNY     88  46  23 W9        29.97F
BURLEY         MOSUNNY   86  47  25 W9        29.95S
EVANSTON, WY   PTSUNNY   82  42  24 SW12G17   30.18S
ROCK SPRINGS   PTSUNNY   83  39  21 W14       30.14S
KEMMERER       SUNNY     82  32  16 W7G20     30.18F

$$



USA.gov is the U.S. government's official web portal to all federal, state and local government web resources and services.